Nabq, Egypt

9:48 AM EET on February 23, 2017 (GMT +0200)
Sharm El Sheikh International

Weather History for HESH - November, 2012

Change the Weather History Date:

Monday, November 12, 2012

  Actual Average Record
Temperature  
Mean Temperature 74 °F -  
Max Temperature 82 °F - - ()
Min Temperature 66 °F - - ()
Cooling Degree Days 9    
Growing Degree Days 24 (Base 50)    
Moisture  
Dew Point 44 °F    
Average Humidity 37    
Maximum Humidity 49    
Minimum Humidity 26    
Precipitation  
Precipitation 0.00 in - - ()
Sea Level Pressure  
Sea Level Pressure 29.97 in    
Wind  
Wind Speed 8 mph ()    
Max Wind Speed 17 mph    
Max Gust Speed -    
Visibility 6.2 miles    
Events      
T = Trace of Precipitation, MM = Missing Value Source: Averaged Metar Reports

Daily Weather History Graph

Daily Weather History Graph

Search for Another Location

Airport or City:

Trip Planner

Search our weather history database for the weather conditions in past years. The results will help you decide how hot, cold, wet, or windy it might be!

Date:

Astronomy

Nov. 12, 2012 Rise Set
Actual Time 6:01 AM EET 4:51 PM EET
Civil Twilight 5:37 AM EET 5:15 PM EET
Nautical Twilight 5:08 AM EET 5:44 PM EET
Astronomical Twilight 4:41 AM EET 6:11 PM EET
Moon 4:08 AM EET (11/12) 3:37 PM EET (11/12)
Length of Visible Light 11h 38m
Length of Day
10h 49m
Waning Crescent, 3% of the Moon is Illuminated
Nov 12
Waning Crescent
Nov 14
New
Nov 20
First Quarter
Nov 28
Full
Dec 6
Last Quarter

Hourly Weather History & Observations

Time (EET) Temp. Dew Point Humidity Pressure Visibility Wind Dir Wind Speed Gust Speed Precip Events Conditions
12:00 AM 71.6 °F 42.8 °F 35% 29.98 in - North 5.8 mph - N/A   Clear
1:00 AM 68.0 °F 42.8 °F 40% 29.98 in - Calm Calm - N/A   Clear
2:00 AM 66.2 °F 41.0 °F 40% 29.98 in - Variable 3.5 mph - N/A   Clear
3:00 AM 69.8 °F 41.0 °F 35% 29.95 in - North 13.8 mph - N/A   Clear
4:00 AM 69.8 °F 41.0 °F 35% 29.95 in - North 15.0 mph - N/A   Clear
5:00 AM 69.8 °F 35.6 °F 28% 29.98 in - North 11.5 mph - N/A   Clear
6:00 AM 68.0 °F 35.6 °F 30% 29.98 in - North 10.4 mph - N/A   Clear
7:00 AM 68.0 °F 37.4 °F 33% 30.01 in - North 8.1 mph - N/A   Clear
8:00 AM 73.4 °F 37.4 °F 27% 30.01 in - North 11.5 mph - N/A   Clear
9:00 AM 75.2 °F 41.0 °F 29% 30.01 in - NNE 17.3 mph - N/A   Clear
10:00 AM 77.0 °F 41.0 °F 28% 30.01 in - NNE 15.0 mph - N/A   Clear
11:00 AM 75.2 °F 42.8 °F 31% 29.98 in - NNE 13.8 mph - N/A   Clear
12:00 PM 77.0 °F 46.4 °F 34% 29.98 in - NNE 11.5 mph - N/A   Clear
1:00 PM 77.0 °F 50.0 °F 39% 29.95 in - NNE 17.3 mph - N/A   Clear
2:00 PM 77.0 °F 50.0 °F 39% 29.95 in 6.2 mi NNE 13.8 mph - N/A   Partly Cloudy
3:00 PM 82.4 °F 44.6 °F 26% 29.92 in 6.2 mi NNE 6.9 mph - N/A   Partly Cloudy
4:00 PM 78.8 °F 46.4 °F 32% 29.92 in 6.2 mi NNE 8.1 mph - N/A   Partly Cloudy
5:00 PM 73.4 °F 48.2 °F 41% 29.95 in 6.2 mi North 9.2 mph - N/A   Scattered Clouds
6:00 PM 71.6 °F 50.0 °F 46% 29.95 in 6.2 mi Variable 3.5 mph - N/A   Partly Cloudy
7:00 PM 71.6 °F 48.2 °F 43% 29.98 in - WNW 2.3 mph - N/A   Clear
8:00 PM 69.8 °F 48.2 °F 46% 29.98 in - Variable 2.3 mph - N/A   Clear
9:00 PM 69.8 °F 48.2 °F 46% 29.98 in - WNW 3.5 mph - N/A   Clear
10:00 PM 69.8 °F 48.2 °F 46% 29.98 in - NW 4.6 mph - N/A   Clear
11:00 PM 68.0 °F 48.2 °F 49% 29.95 in - NNW 5.8 mph - N/A   Clear